N208WI -KSAN

Flight info

Callsign N208WI
Flight time N/A
Altitude
Route PATTERN
Aircraft C172/L-VGD/C

Departure

Time N/A
Airport -

Arrival

Time 2026-04-23 01:29
Airport San Diego International Airport (KSAN)
Time Latitude Longitude Altitude Speed Heading
2026-04-23 01:28 32.73376 -117.17984 22 ft 0 kts 290°
2026-04-23 01:31 32.73375 -117.17978 21 ft 0 kts 284°
2026-04-23 01:31 32.73375 -117.17977 21 ft 0 kts 283°
2026-04-23 01:31 32.73373 -117.17963 21 ft 2 kts 272°
2026-04-23 01:31 32.73377 -117.17945 21 ft 2 kts 226°
2026-04-23 01:32 32.73387 -117.17937 21 ft 0 kts 200°
2026-04-23 01:32 32.73347 -117.17949 21 ft 0 kts 188°
2026-04-23 01:33 32.73346 -117.17949 21 ft 2 kts 188°
2026-04-23 01:33 32.73266 -117.17980 18 ft 15 kts 197°
2026-04-23 01:34 32.73210 -117.17891 17 ft 16 kts 107°
2026-04-23 01:34 32.73180 -117.17767 18 ft 14 kts 106°
2026-04-23 01:34 32.73162 -117.17695 18 ft 8 kts 111°
2026-04-23 01:34 32.73148 -117.17673 18 ft 0 kts 145°
2026-04-23 01:35 32.73145 -117.17671 18 ft 0 kts 160°
2026-04-23 01:37 32.73144 -117.17671 18 ft 1 kts 159°
2026-04-23 01:37 32.73114 -117.17668 17 ft 0 kts 193°
2026-04-23 01:39 32.73055 -117.17711 16 ft 19 kts 262°
2026-04-23 01:40 32.73123 -117.18011 14 ft 62 kts 287°
2026-04-23 01:40 32.73280 -117.18650 27 ft 96 kts 286°
2026-04-23 01:40 32.73453 -117.19420 216 ft 97 kts 286°
2026-04-23 01:40 32.73598 -117.20193 455 ft 91 kts 278°
2026-04-23 01:41 32.73623 -117.20438 504 ft 95 kts 276°
2026-04-23 01:41 32.75357 -117.20672 964 ft 120 kts 79°
2026-04-23 01:42 32.74776 -117.18690 1076 ft 100 kts 122°
2026-04-23 01:42 32.74478 -117.17985 1096 ft 91 kts 116°
2026-04-23 01:42 32.74244 -117.17282 1063 ft 91 kts 108°
2026-04-23 01:43 32.74055 -117.16584 960 ft 89 kts 110°
2026-04-23 01:43 32.73875 -117.15891 896 ft 85 kts 106°
2026-04-23 01:43 32.73724 -117.15274 909 ft 73 kts 116°
2026-04-23 01:43 32.73330 -117.14869 932 ft 79 kts 167°
2026-04-23 01:44 32.72831 -117.15107 912 ft 89 kts 236°
2026-04-23 01:44 32.72648 -117.15874 721 ft 109 kts 268°
2026-04-23 01:44 32.72819 -117.16764 410 ft 110 kts 287°
2026-04-23 01:44 32.73025 -117.17599 125 ft 99 kts 287°
2026-04-23 01:45 32.73199 -117.18320 21 ft 81 kts 287°
2026-04-23 01:45 32.73294 -117.18707 19 ft 67 kts 287°
2026-04-23 01:45 32.73427 -117.19250 18 ft 83 kts 286°
2026-04-23 01:45 32.73595 -117.19995 141 ft 96 kts 284°
2026-04-23 01:46 32.73771 -117.20751 377 ft 93 kts 289°
2026-04-23 01:46 32.74123 -117.21362 630 ft 91 kts 325°
2026-04-23 01:46 32.74726 -117.21491 848 ft 92 kts 18°
2026-04-23 01:46 32.75162 -117.20959 1054 ft 96 kts 76°
2026-04-23 01:47 32.75055 -117.20161 1093 ft 102 kts 114°
2026-04-23 01:47 32.74767 -117.19376 1116 ft 102 kts 114°
2026-04-23 01:47 32.74516 -117.18627 1106 ft 93 kts 110°
2026-04-23 01:47 32.74339 -117.17932 1134 ft 84 kts 105°
2026-04-23 01:48 32.74229 -117.17284 1170 ft 74 kts 99°
2026-04-23 01:48 32.74157 -117.16686 1144 ft 75 kts 101°
2026-04-23 01:48 32.74038 -117.16089 1143 ft 80 kts 114°
2026-04-23 01:48 32.73771 -117.15480 1148 ft 84 kts 121°
2026-04-23 01:49 32.73493 -117.14855 1172 ft 86 kts 119°
2026-04-23 01:49 32.73214 -117.14226 1217 ft 86 kts 119°
2026-04-23 01:49 32.72848 -117.13709 1260 ft 85 kts 156°
2026-04-23 01:49 32.72273 -117.13768 1230 ft 90 kts 220°
2026-04-23 01:50 32.72142 -117.14452 1125 ft 99 kts 288°
2026-04-23 01:50 32.72426 -117.15262 820 ft 108 kts 292°
2026-04-23 01:50 32.72655 -117.16104 512 ft 104 kts 287°
2026-04-23 01:50 32.72847 -117.16873 296 ft 89 kts 287°
2026-04-23 01:51 32.73008 -117.17533 115 ft 78 kts 287°
2026-04-23 01:51 32.73149 -117.18117 22 ft 70 kts 287°
2026-04-23 01:51 32.73286 -117.18673 19 ft 82 kts 286°
2026-04-23 01:51 32.73467 -117.19433 100 ft 102 kts 286°
2026-04-23 01:52 32.73656 -117.20234 347 ft 99 kts 288°
2026-04-23 01:52 32.73877 -117.21005 564 ft 99 kts 299°
2026-04-23 01:52 32.74411 -117.21470 774 ft 102 kts 351°
2026-04-23 01:52 32.75090 -117.21224 945 ft 108 kts 39°
2026-04-23 01:53 32.75435 -117.20429 1052 ft 115 kts 89°
2026-04-23 01:53 32.75236 -117.19495 1132 ft 122 kts 111°
2026-04-23 01:53 32.74946 -117.18559 1149 ft 121 kts 110°
2026-04-23 01:53 32.74710 -117.17609 1161 ft 116 kts 103°
2026-04-23 01:54 32.74533 -117.16731 1306 ft 98 kts 107°
2026-04-23 01:54 32.74342 -117.16038 1291 ft 80 kts 111°
2026-04-23 01:54 32.74162 -117.15484 1253 ft 76 kts 110°
2026-04-23 01:54 32.73963 -117.14775 1283 ft 102 kts 111°
2026-04-23 01:55 32.73651 -117.13980 1358 ft 105 kts 124°
2026-04-23 01:55 32.73069 -117.13464 1347 ft 110 kts 167°
2026-04-23 01:55 32.72354 -117.13605 1227 ft 107 kts 216°
2026-04-23 01:55 32.72099 -117.14385 1049 ft 109 kts 287°
2026-04-23 01:56 32.72433 -117.15219 762 ft 113 kts 292°
2026-04-23 01:56 32.72657 -117.16072 502 ft 103 kts 287°
2026-04-23 01:56 32.72840 -117.16851 294 ft 96 kts 286°
2026-04-23 01:56 32.73027 -117.17586 118 ft 86 kts 286°
2026-04-23 01:57 32.73177 -117.18226 20 ft 73 kts 286°
2026-04-23 01:57 32.73315 -117.18792 18 ft 84 kts 285°
2026-04-23 01:57 32.73493 -117.19545 119 ft 94 kts 284°
2026-04-23 01:57 32.73629 -117.20257 262 ft 90 kts 283°
2026-04-23 01:58 32.73790 -117.20990 484 ft 93 kts 285°
2026-04-23 01:58 32.74096 -117.21659 676 ft 98 kts 325°
2026-04-23 01:58 32.74746 -117.21646 907 ft 99 kts 34°
2026-04-23 01:58 32.75021 -117.20913 1084 ft 104 kts 99°
2026-04-23 01:59 32.74850 -117.20000 1133 ft 114 kts 103°
2026-04-23 01:59 32.74688 -117.19124 1215 ft 105 kts 103°
2026-04-23 01:59 32.74551 -117.18306 1328 ft 95 kts 102°
2026-04-23 01:59 32.74441 -117.17540 1397 ft 94 kts 100°
2026-04-23 02:00 32.74353 -117.16783 1482 ft 88 kts 95°
2026-04-23 02:00 32.74333 -117.16119 1679 ft 71 kts 83°
2026-04-23 02:00 32.74404 -117.15544 1790 ft 70 kts 97°
2026-04-23 02:00 32.74287 -117.14945 1927 ft 77 kts 111°
2026-04-23 02:01 32.74055 -117.14361 2062 ft 83 kts 114°
2026-04-23 02:01 32.73863 -117.13673 2196 ft 89 kts 107°
2026-04-23 02:01 32.73644 -117.12849 2130 ft 112 kts 111°
2026-04-23 02:01 32.73362 -117.11989 2235 ft 111 kts 111°
2026-04-23 02:02 32.73110 -117.11135 2313 ft 114 kts 110°
2026-04-23 02:02 32.72840 -117.10215 2296 ft 122 kts 109°
2026-04-23 02:02 32.72547 -117.09264 2328 ft 120 kts 113°
2026-04-23 02:02 32.72090 -117.08466 2394 ft 117 kts 148°
2026-04-23 02:03 32.71354 -117.08288 2547 ft 110 kts 192°
2026-04-23 02:03 32.70690 -117.08740 2575 ft 114 kts 227°
2026-04-23 02:03 32.70474 -117.09634 2522 ft 117 kts 289°
2026-04-23 02:03 32.70879 -117.10511 2351 ft 130 kts 307°
2026-04-23 02:04 32.71391 -117.11369 1965 ft 126 kts 300°
2026-04-23 02:04 32.71726 -117.12316 1524 ft 126 kts 288°
2026-04-23 02:04 32.71984 -117.13285 1084 ft 119 kts 286°
2026-04-23 02:04 32.72197 -117.14188 830 ft 105 kts 287°
2026-04-23 02:05 32.72390 -117.14976 633 ft 95 kts 286°
2026-04-23 02:05 32.72555 -117.15664 486 ft 79 kts 285°
2026-04-23 02:05 32.72696 -117.16270 352 ft 76 kts 286°
2026-04-23 02:05 32.72845 -117.16893 243 ft 85 kts 285°
2026-04-23 02:06 32.73020 -117.17603 121 ft 91 kts 287°
2026-04-23 02:06 32.73195 -117.18297 26 ft 79 kts 287°
2026-04-23 02:06 32.73333 -117.18877 19 ft 82 kts 284°
2026-04-23 02:06 32.73492 -117.19592 141 ft 93 kts 285°
2026-04-23 02:07 32.73667 -117.20312 419 ft 84 kts 294°
2026-04-23 02:07 32.73924 -117.20897 668 ft 84 kts 313°
2026-04-23 02:07 32.74490 -117.21172 809 ft 99 kts 359°
2026-04-23 02:07 32.75070 -117.20718 922 ft 113 kts 60°
2026-04-23 02:08 32.74960 -117.19761 1001 ft 125 kts 110°
2026-04-23 02:08 32.74741 -117.18826 1109 ft 108 kts 97°
2026-04-23 02:08 32.74573 -117.17978 1130 ft 107 kts 101°
2026-04-23 02:08 32.74399 -117.17118 1149 ft 105 kts 99°
2026-04-23 02:09 32.74252 -117.16292 1179 ft 99 kts 97°
2026-04-23 02:09 32.74087 -117.15495 1184 ft 103 kts 104°
2026-04-23 02:09 32.73855 -117.14657 1173 ft 108 kts 107°
2026-04-23 02:09 32.73597 -117.13834 1245 ft 102 kts 106°
2026-04-23 02:10 32.73378 -117.13047 1321 ft 98 kts 104°
2026-04-23 02:10 32.73141 -117.12282 1354 ft 98 kts 114°
2026-04-23 02:10 32.72857 -117.11595 1467 ft 89 kts 117°
2026-04-23 02:10 32.72355 -117.11077 1479 ft 109 kts 166°
2026-04-23 02:11 32.71619 -117.11171 1596 ft 106 kts 223°
2026-04-23 02:11 32.71535 -117.11880 1504 ft 110 kts 297°
2026-04-23 02:11 32.71796 -117.12765 1255 ft 109 kts 293°
2026-04-23 02:11 32.72012 -117.13594 1018 ft 100 kts 292°
2026-04-23 02:12 32.72212 -117.14363 793 ft 97 kts 290°
2026-04-23 02:12 32.72390 -117.15100 537 ft 85 kts 290°
2026-04-23 02:12 32.72546 -117.15681 399 ft 64 kts 287°
2026-04-23 02:12 32.72665 -117.16243 401 ft 79 kts 288°
2026-04-23 02:13 32.72854 -117.16928 309 ft 97 kts 288°
2026-04-23 02:13 32.73033 -117.17664 129 ft 82 kts 290°
2026-04-23 02:13 32.73174 -117.18228 23 ft 59 kts 291°
2026-04-23 02:13 32.73273 -117.18616 20 ft 49 kts 287°
2026-04-23 02:14 32.73388 -117.19155 32 ft 80 kts 285°
2026-04-23 02:14 32.73489 -117.19829 190 ft 85 kts 285°
2026-04-23 02:14 32.73676 -117.20516 406 ft 87 kts 293°
2026-04-23 02:14 32.73955 -117.21102 702 ft 80 kts 321°
2026-04-23 02:15 32.74898 -117.20493 1074 ft 104 kts 84°
2026-04-23 02:15 32.74754 -117.19717 1408 ft 97 kts 101°
2026-04-23 02:15 32.74599 -117.18925 1657 ft 97 kts 97°
2026-04-23 02:16 32.74512 -117.18146 1854 ft 103 kts 93°
2026-04-23 02:16 32.74440 -117.17320 2174 ft 91 kts 86°
2026-04-23 02:16 32.74428 -117.16606 2448 ft 85 kts 84°
2026-04-23 02:16 32.74418 -117.15736 2231 ft 128 kts 85°
2026-04-23 02:17 32.74339 -117.14648 2197 ft 132 kts 95°
2026-04-23 02:17 32.74110 -117.13544 1986 ft 141 kts 113°
2026-04-23 02:17 32.73404 -117.12929 1850 ft 124 kts 181°
2026-04-23 02:17 32.72760 -117.13367 1620 ft 110 kts 237°
2026-04-23 02:18 32.72438 -117.14174 1350 ft 108 kts 265°
2026-04-23 02:18 32.72421 -117.15073 913 ft 109 kts 282°
2026-04-23 02:18 32.72605 -117.15909 582 ft 98 kts 288°
2026-04-23 02:18 32.72785 -117.16634 328 ft 85 kts 288°
2026-04-23 02:19 32.72937 -117.17274 152 ft 77 kts 291°
2026-04-23 02:19 32.73080 -117.17849 61 ft 69 kts 290°
2026-04-23 02:19 32.73216 -117.18374 19 ft 61 kts 291°
2026-04-23 02:19 32.73294 -117.18681 19 ft 27 kts 297°
2026-04-23 02:20 32.73361 -117.18813 17 ft 14 kts 347°
2026-04-23 02:20 32.73415 -117.18790 16 ft 8 kts 53°
2026-04-23 02:20 32.73406 -117.18702 16 ft 14 kts 107°
2026-04-23 02:20 32.73374 -117.18569 19 ft 19 kts 106°
2026-04-23 02:21 32.73351 -117.18477 20 ft 10 kts 105°
2026-04-23 02:21 32.73325 -117.18356 19 ft 25 kts 103°
2026-04-23 02:21 32.73268 -117.18115 18 ft 33 kts 105°
2026-04-23 02:21 32.73264 -117.17985 18 ft 11 kts 29°
2026-04-23 02:22 32.73331 -117.17961 20 ft 10 kts
2026-04-23 02:22 32.73375 -117.17945 21 ft 0 kts 15°
2026-04-23 02:22 32.73376 -117.17945 21 ft 2 kts 10°
2026-04-23 02:22 32.73396 -117.17957 21 ft 3 kts 207°
2026-04-23 02:23 32.73333 -117.17955 20 ft 17 kts 207°
2026-04-23 02:23 32.73217 -117.17925 16 ft 25 kts 99°
2026-04-23 02:23 32.73171 -117.17733 18 ft 23 kts 105°
2026-04-23 02:23 32.73137 -117.17596 17 ft 12 kts 120°
2026-04-23 02:24 32.73086 -117.17545 17 ft 2 kts 143°
2026-04-23 02:26 32.73073 -117.17534 17 ft 10 kts 149°
2026-04-23 02:26 32.73019 -117.17594 17 ft 14 kts 298°
2026-04-23 02:27 32.73063 -117.17756 16 ft 40 kts 286°
2026-04-23 02:27 32.73175 -117.18226 19 ft 75 kts 285°
2026-04-23 02:27 32.73293 -117.18837 246 ft 70 kts 288°
2026-04-23 02:27 32.73438 -117.19422 409 ft 77 kts 289°
2026-04-23 02:28 32.73642 -117.20027 662 ft 81 kts 295°
2026-04-23 02:28 32.73897 -117.20640 912 ft 84 kts 294°
2026-04-23 02:28 32.74144 -117.21255 1235 ft 76 kts 307°
2026-04-23 02:28 32.74576 -117.21624 1424 ft 89 kts 347°
2026-04-23 02:29 32.75209 -117.21306 1485 ft 112 kts 47°
2026-04-23 02:29 32.75364 -117.20444 1796 ft 109 kts 93°
2026-04-23 02:29 32.75194 -117.19541 2006 ft 111 kts 99°
2026-04-23 02:29 32.75075 -117.18648 2154 ft 118 kts 95°
2026-04-23 02:30 32.74930 -117.17662 2275 ft 120 kts 97°
2026-04-23 02:30 32.74786 -117.16710 2481 ft 117 kts 97°
2026-04-23 02:30 32.74618 -117.15765 2682 ft 115 kts 99°
2026-04-23 02:30 32.74445 -117.14838 2835 ft 117 kts 101°
2026-04-23 02:31 32.74182 -117.13848 2740 ft 139 kts 109°
2026-04-23 02:31 32.73457 -117.13135 2677 ft 142 kts 173°
2026-04-23 02:31 32.72597 -117.13372 2307 ft 121 kts 229°
2026-04-23 02:31 32.72290 -117.14247 1723 ft 117 kts 272°
2026-04-23 02:32 32.72372 -117.14891 1231 ft 120 kts 285°
2026-04-23 02:32 32.72575 -117.15833 635 ft 110 kts 289°
2026-04-23 02:32 32.72829 -117.16847 271 ft 85 kts 290°
2026-04-23 02:32 32.72978 -117.17439 127 ft 66 kts 291°
2026-04-23 02:33 32.73120 -117.18004 59 ft 78 kts 288°
2026-04-23 02:33 32.73212 -117.18377 21 ft 61 kts 292°
2026-04-23 02:33 32.73313 -117.18727 18 ft 27 kts 297°
2026-04-23 02:33 32.73409 -117.18801 16 ft 14 kts 42°
2026-04-23 02:34 32.73407 -117.18706 16 ft 11 kts 104°
2026-04-23 02:34 32.73372 -117.18557 19 ft 29 kts 103°
2026-04-23 02:34 32.73302 -117.18269 18 ft 37 kts 105°
2026-04-23 02:34 32.73252 -117.18012 18 ft 24 kts 70°
2026-04-23 02:35 32.73326 -117.17963 20 ft 9 kts 18°
2026-04-23 02:35 32.73374 -117.17945 21 ft 6 kts
2026-04-23 02:35 32.73395 -117.17968 22 ft 4 kts 273°
2026-04-23 02:35 32.73378 -117.17985 22 ft 3 kts 197°
2026-04-23 02:36 32.73377 -117.17985 22 ft 0 kts 196°